{"data":{"norad_id":46348,"intl_designator":"2020-062Z","name":"STARLINK-1553","alt_names":[],"object_type":"PAYLOAD","status":"ACTIVE","operator":null,"country":"US","launch_date":"2020-09-03","launch_site_code":"AFETR","launch_vehicle":null,"mission":null,"orbit_class":"UNKNOWN","rcs_meters":null,"size_class":null,"mass_kg":null,"dimensions":null,"purposes":["comms"],"wikipedia_slug":null,"has_3d_model":false,"image_url":null,"decayed_at":null,"tle_current":{"epoch":"2026-05-25T03:36:41.935968Z","epoch_age_seconds":61419,"freshness":"FRESH","line1":"1 46348U 20062Z   26145.15048537  .00027527  00000+0  67533-3 0  9995","line2":"2 46348  53.0368 306.1703 0002849  60.6075 299.5213 15.40519884317062","mean_motion":15.40519884,"eccentricity":0.0002849,"inclination_deg":53.0368,"raan_deg":306.1703,"arg_perigee_deg":60.6075,"mean_anomaly_deg":299.5213,"bstar":0.00067533,"rev_number":31706,"period_min":93.474937581526,"perigee_km":442.63010829774,"apogee_km":446.51768896778,"semimajor_km":6822.7108986328,"source":"CELESTRAK","updated_at":"2026-05-25T13:38:16.472004Z"}}}